Location: Biltmore Gardens
(41.6070°N, 83.4666°W)
Time: 14:24:03
(UTC+00:00)

Cosmos 2084 - Pass Details

Date: 14 July 2020
Orbit: 571 x 611 km, 62.8° (Epoch: 04 August)

Event Time Altitude Azimuth Distance (km) Brightness Sun altitude
Rises 01:55:15 0° 319° (NW) 2,880 9.1 -8.2°
Reaches altitude 10° 01:57:35 10° 313° (NW) 1,969 7.9 -8.5°
Maximum altitude 02:01:52 48° 240° (WSW) 798 4.3 -9.2°
Drops below altitude 10° 02:06:06 10° 166° (SSE) 1,942 5.6 -9.8°
Enters shadow 02:06:28 - 165° (SSE) 2,081 5.8 -9.8°
